Flag for France Weather past 2 weeks in Douai, France

Now
70 °F

Scattered clouds.


Feels Like: 70 °F
Forecast: 54 / 72 °F
Wind: 8 mph from South

Location: Lille Airport

Current Time: Sep 1, 2014 at 2:16:13 PM

Latest Report: Sep 1, 2014 at 2:00 PM


Visibility: N/A

Pressure: 30.15 "Hg

Humidity: 64%

Dew point: 57 °F

Location of DouaiLocation

Historic Weather in Douai — Graph

°F

Douai temperature yesterday

Maximum temperature yesterday: 68 °F (at 2:30 PM)
Minimum temperature yesterday: 55 °F (at 11:30 PM)
Average temperature yesterday: 61 °F

Past Weeks' High & Low Weather Summary

 TemperatureHumidityPressure
High72 °F (Aug 29, 3:30 PM)100% (Aug 17, 3:30 PM)30.18 "Hg (Aug 17, 3:30 PM)
Low46 °F (Aug 20, 5:00 AM)43% (Aug 23, 5:00 PM)29.59 "Hg (Aug 26, 2:00 AM)
Average59 °F81%29.94 "Hg
* Reported Aug 17 1:00 PM — Sep 1 1:00 PM, Douai, Weather by CustomWeather, © 2014

Note: Actual official high and low records may vary slightly from our data, if they occured in-between our weather recording intervals... More about our weather records

Advertising

Douai weather history for previous 24 hours

 ConditionsComfort  
Time TempWeatherWind HumidityBarometerVisibility
1:00 PM
Sep 1
68 °FPassing clouds.8 mph78%30.15 "HgN/A
12:30 PM64 °FPassing clouds.7 mph88%30.15 "Hg6 mi
12:00 PM61 °FScattered clouds.6 mph100%30.15 "Hg4 mi
11:30 AM59 °FFog.5 mph100%30.18 "Hg1 mi
11:00 AM57 °FFog.3 mph100%30.18 "Hg0 mi
10:30 AM55 °FFog.3 mph100%30.15 "Hg0 mi
10:00 AM55 °FFog.3 mph100%30.15 "Hg0 mi
9:30 AM55 °FFog.3 mph100%30.15 "Hg0 mi
9:00 AM55 °FFog.3 mph100%30.15 "Hg0 mi
8:30 AM55 °FFog.No wind100%30.15 "Hg0 mi
8:00 AM54 °FFog.No wind100%30.15 "Hg0 mi
7:30 AM50 °FFog.No wind100%30.15 "Hg0 mi
7:00 AM50 °FFog.No wind100%30.12 "Hg0 mi
6:30 AM48 °FFog.No wind100%30.12 "Hg0 mi
6:00 AM48 °FFog.No wind100%30.12 "Hg0 mi
5:30 AM50 °FFog.No wind94%30.12 "Hg0 mi
5:00 AM50 °FPassing clouds.No wind94%30.12 "Hg4 mi
4:30 AM50 °FLight fog.No wind100%30.12 "Hg4 mi
4:00 AM50 °FLight fog.No wind94%30.12 "Hg2 mi
2:00 AM52 °FClear.No wind94%30.12 "Hg10 mi
1:00 AM54 °FClear.No wind88%30.12 "Hg10 mi
12:30 AM54 °FClear.5 mph88%30.12 "Hg10 mi
12:00 AM54 °FClear.No wind94%30.12 "Hg10 mi
11:30 PM
Aug 31
55 °FClear.No wind82%30.12 "Hg10 mi
11:00 PM57 °FClear.No wind77%30.12 "Hg10 mi
10:30 PM57 °FClear.3 mph77%30.09 "Hg10 mi
10:00 PM59 °FClear.3 mph72%30.09 "Hg10 mi
9:30 PM61 °FSunny.6 mph68%30.09 "Hg10 mi
9:00 PM61 °FSunny.6 mph72%30.09 "Hg10 mi
8:30 PM63 °FSunny.9 mph68%30.07 "Hg10 mi
7:30 PM63 °FSunny.13 mph64%30.07 "Hg10 mi
7:00 PM64 °FSunny.13 mph60%30.07 "Hg10 mi
6:30 PM66 °FPassing clouds.14 mph56%30.04 "HgN/A
6:00 PM66 °FPassing clouds.17 mph56%30.04 "HgN/A
5:30 PM66 °FPartly sunny.16 mph60%30.04 "HgN/A
5:00 PM68 °FPartly sunny.14 mph56%30.04 "HgN/A
4:30 PM68 °FPartly sunny.21 mph53%30.04 "HgN/A
4:00 PM68 °FPartly sunny.20 mph56%30.04 "HgN/A
3:30 PM68 °FBroken clouds.21 mph60%30.04 "HgN/A
3:00 PM68 °FBroken clouds.17 mph64%30.01 "HgN/A
2:30 PM68 °FBroken clouds.17 mph60%30.01 "HgN/A
2:00 PM66 °FPartly sunny.14 mph73%30.01 "HgN/A
Weather by CustomWeather, © 2014

See weather overviewHow to use our weather pages